This is the latest recevied weather packets stored in our database for station/object KW4UJ. If no packets are shown the sender has not sent any weather packets the latest 10 day(s).
| Time | Temp. | Humidity | Pressure | Rain* | Wind** | Luminosity | Snow |
|---|---|---|---|---|---|---|---|
| 1777924112 | 25° C | 33% | 1010 hPa | 0 mm | - | 559 W/m² | - |
| 1777923808 | 25° C | 32% | 1010.2 hPa | 0 mm | - | 563 W/m² | - |
| 1777923504 | 25.56° C | 32% | 1010.1 hPa | 0 mm | - | 569 W/m² | - |
| 1777923201 | 25.56° C | 33% | 1010.3 hPa | 0 mm | - | 574 W/m² | - |
| 1777922900 | 25° C | 33% | 1010.4 hPa | 0 mm | - | 578 W/m² | - |
| 1777922597 | 25° C | 33% | 1010.4 hPa | 0 mm | - | 582 W/m² | - |
| 1777922296 | 25° C | 33% | 1010.5 hPa | 0 mm | - | 596 W/m² | - |
| 1777921993 | 25° C | 34% | 1010.6 hPa | 0 mm | - | 607 W/m² | - |
| 1777921688 | 25° C | 32% | 1010.7 hPa | 0 mm | - | 612 W/m² | - |
| 1777921385 | 25° C | 35% | 1011 hPa | 0 mm | - | 620 W/m² | - |
| 1777921081 | 25° C | 32% | 1011 hPa | 0 mm | - | 641 W/m² | - |
| 1777920778 | 25° C | 35% | 1011.1 hPa | 0 mm | - | 689 W/m² | - |
| 1777920474 | 24.44° C | 33% | 1011.1 hPa | 0 mm | - | 662 W/m² | - |
| 1777920170 | 25° C | 34% | 1011.2 hPa | 0 mm | - | 651 W/m² | - |
| 1777919866 | 25° C | 35% | 1011.3 hPa | 0 mm | - | 648 W/m² | - |
| 1777919563 | 24.44° C | 35% | 1011.3 hPa | 0 mm | - | 660 W/m² | - |
| 1777919261 | 25° C | 33% | 1011.5 hPa | 0 mm | - | 660 W/m² | - |
| 1777918958 | 24.44° C | 34% | 1011.4 hPa | 0 mm | - | 680 W/m² | - |
| 1777918656 | 23.89° C | 33% | 1011.6 hPa | 0 mm | - | 715 W/m² | - |
| 1777918353 | 24.44° C | 36% | 1011.6 hPa | 0 mm | - | 667 W/m² | - |
| 1777918052 | 24.44° C | 38% | 1011.6 hPa | 0 mm | - | 682 W/m² | - |
| 1777917750 | 23.33° C | 34% | 1011.6 hPa | 0 mm | - | 677 W/m² | - |
| 1777917447 | 23.33° C | 35% | 1011.9 hPa | 0 mm | - | 685 W/m² | - |
| 1777917144 | 23.33° C | 36% | 1012 hPa | 0 mm | - | 688 W/m² | - |
| 1777916842 | 23.89° C | 36% | 1012.1 hPa | 0 mm | - | 687 W/m² | - |
* Rain latest hour (hover to see other rain measurements)
** Current wind speed in m/s (hover to see current wind gust speed)